Phoenix Deer Valley, AZ

3:50 AM MST on November 15, 2019 (GMT -0700)
Phoenix-Deer Valley Municipal

Weather History for KDVT - October, 2019

Change the Weather History Date:

Tuesday, October 15, 2019

  Actual Average Record
Temperature  
Mean Temperature 78 °F -  
Max Temperature 89 °F 84 °F 96 °F (2011)
Min Temperature 66 °F 63 °F 54 °F (2013)
Cooling Degree Days 12    
Growing Degree Days 28 (Base 50)    
Moisture  
Dew Point 42 °F    
Average Humidity 30    
Maximum Humidity 47    
Minimum Humidity 17    
Precipitation  
Precipitation 0.00 in - - ()
Sea Level Pressure  
Sea Level Pressure 29.90 in    
Wind  
Wind Speed 5 mph ()    
Max Wind Speed 9 mph    
Max Gust Speed -    
Visibility 10.0 miles    
Events      
Averages and records for this station are not official NWS values.
T = Trace of Precipitation, MM = Missing Value Source: Averaged Metar Reports

Daily Weather History Graph

Daily Weather History Graph

Search for Another Location

Airport or City:

Astronomy

Oct. 15, 2019 Rise Set
Actual Time 6:33 AM MST 5:54 PM MST
Civil Twilight 6:07 AM MST 6:19 PM MST
Nautical Twilight 5:38 AM MST 6:48 PM MST
Astronomical Twilight 5:10 AM MST 7:17 PM MST
Moon 7:20 PM MST 8:04 AM MST
Length of Visible Light 12h 11m
Length of Day
11h 21m
Waning Gibbous, 97% of the Moon is Illuminated
Oct 15
Waning Gibbous
Oct 21
Last Quarter
Oct 27
New
Nov 4
First Quarter
Nov 12
Full

Hourly Weather History & Observations

Time (MST) Temp. Dew Point Humidity Pressure Visibility Wind Dir Wind Speed Gust Speed Precip Events Conditions
12:53 AM 71.1 °F 46.0 °F 41% 29.86 in 10.0 mi North 6.9 mph - N/A   Clear
1:53 AM 70.0 °F 46.0 °F 42% 29.87 in 10.0 mi North 5.8 mph - N/A   Clear
2:53 AM 70.0 °F 46.0 °F 42% 29.87 in 10.0 mi North 8.1 mph - N/A   Clear
3:53 AM 68.0 °F 46.0 °F 45% 29.88 in 10.0 mi North 8.1 mph - N/A   Clear
4:53 AM 68.0 °F 45.0 °F 43% 29.89 in 10.0 mi Calm Calm - N/A   Clear
5:53 AM 69.1 °F 45.0 °F 42% 29.91 in 10.0 mi East 4.6 mph - N/A   Clear
6:53 AM 66.0 °F 45.0 °F 47% 29.93 in 10.0 mi Calm Calm - N/A   Clear
7:53 AM 73.0 °F 45.0 °F 37% 29.96 in 10.0 mi NE 4.6 mph - N/A   Clear
8:53 AM 75.0 °F 46.0 °F 36% 29.98 in 10.0 mi West 3.5 mph - N/A   Clear
9:53 AM 78.1 °F 46.0 °F 32% 29.97 in 10.0 mi South 3.5 mph - N/A   Clear
10:53 AM 82.0 °F 46.0 °F 28% 29.96 in 10.0 mi South 4.6 mph - N/A   Clear
11:53 AM 84.9 °F 45.0 °F 25% 29.94 in 10.0 mi SSW 5.8 mph - N/A   Clear
12:53 PM 87.1 °F 42.1 °F 21% 29.91 in 10.0 mi Variable 3.5 mph - N/A   Clear
1:53 PM 87.1 °F 41.0 °F 20% 29.88 in 10.0 mi West 8.1 mph - N/A   Clear
2:53 PM 89.1 °F 39.0 °F 17% 29.86 in 10.0 mi Variable 4.6 mph - N/A   Clear
3:53 PM 89.1 °F 39.9 °F 18% 29.85 in 10.0 mi WNW 5.8 mph - N/A   Clear
4:53 PM 88.0 °F 39.9 °F 18% 29.85 in 10.0 mi WSW 9.2 mph - N/A   Clear
5:53 PM 86.0 °F 39.0 °F 19% 29.85 in 10.0 mi West 8.1 mph - N/A   Clear
6:53 PM 82.0 °F 37.9 °F 21% 29.87 in 10.0 mi WNW 4.6 mph - N/A   Clear
7:53 PM 79.0 °F 39.9 °F 25% 29.88 in 10.0 mi NNW 4.6 mph - N/A   Clear
8:53 PM 75.0 °F 37.9 °F 26% 29.89 in 10.0 mi East 3.5 mph - N/A   Clear
9:29 PM 75.9 °F 37.9 °F 25% 29.96 in 10.0 mi NNE 9.2 mph - N/A   Clear
9:53 PM 73.9 °F 37.9 °F 27% 29.90 in 10.0 mi NNE 5.8 mph - N/A   Clear
10:53 PM 73.0 °F 39.0 °F 29% 29.90 in 10.0 mi NE 3.5 mph - N/A   Clear
11:53 PM 71.1 °F 37.0 °F 29% 29.90 in 10.0 mi NNW 5.8 mph - N/A   Clear